Redmond, OR

2:00 AM PST on November 14, 2019 (GMT -0800)
Roberts Field Airport

Weather History for KRDM - September, 2019

Change the Weather History Date:

Friday, September 27, 2019

  Actual Average Record
Temperature  
Mean Temperature 51 °F 54 °F  
Max Temperature 68 °F 72 °F 97 °F (1963)
Min Temperature 34 °F 35 °F 25 °F (1999)
Degree Days  
Heating Degree Days 14 11  
Month to date heating degree days 150 214  
Since 1 July heating degree days 197 363  
Cooling Degree Days 0 0  
Month to date cooling degree days 37 14  
Year to date cooling degree days 293 220  
Moisture  
Dew Point 34 °F    
Average Humidity 56    
Maximum Humidity 93    
Minimum Humidity 19    
Precipitation  
Precipitation 0.04 in 0.02 in 0.46 in (1957)
Month to date precipitation 1.35 0.37  
Year to date precipitation 8.81 6.10  
Sea Level Pressure  
Sea Level Pressure 29.89 in    
Wind  
Wind Speed 8 mph (WNW)    
Max Wind Speed 23 mph    
Max Gust Speed 30 mph    
Visibility 9 miles    
Events Rain    
T = Trace of Precipitation, MM = Missing Value Source: NWS Daily Summary

Daily Weather History Graph

Daily Weather History Graph

Search for Another Location

Airport or City:

Astronomy

Sep. 27, 2019 Rise Set
Actual Time 6:57 AM PDT 6:52 PM PDT
Civil Twilight 6:28 AM PDT 7:21 PM PDT
Nautical Twilight 5:54 AM PDT 7:55 PM PDT
Astronomical Twilight 5:20 AM PDT 8:29 PM PDT
Moon 5:19 AM PDT (9/27) 6:50 PM PDT (9/27)
Length of Visible Light 12h 53m
Length of Day
11h 55m
Waning Crescent, 1% of the Moon is Illuminated
Sep 27
Waning Crescent
Sep 28
New
Oct 5
First Quarter
Oct 13
Full
Oct 21
Last Quarter

Hourly Weather History & Observations

Time (PDT) Temp. Windchill Dew Point Humidity Pressure Visibility Wind Dir Wind Speed Gust Speed Precip Events Conditions
12:56 AM 45.0 °F - 42.1 °F 90% 29.94 in 10.0 mi Calm Calm - N/A   Clear
1:56 AM 43.0 °F - 39.9 °F 89% 29.95 in 10.0 mi Calm Calm - N/A   Clear
2:56 AM 43.0 °F - 39.9 °F 89% 29.95 in 10.0 mi Calm Calm - N/A   Clear
3:16 AM 41.0 °F 39.0 °F 37.9 °F 89% 29.98 in 1.8 mi SSE 3.5 mph - N/A   Clear
3:22 AM 39.9 °F 37.8 °F 37.9 °F 93% 29.98 in 3.0 mi SSE 3.5 mph - N/A   Clear
3:56 AM 39.0 °F 36.8 °F 37.0 °F 93% 29.95 in 10.0 mi SSE 3.5 mph - N/A   Clear
4:56 AM 35.1 °F - 33.1 °F 92% 29.96 in 0.8 mi Calm Calm - N/A   Clear
5:04 AM 37.9 °F 34.4 °F 34.0 °F 86% 29.98 in 10.0 mi South 4.6 mph - N/A   Clear
5:56 AM 37.9 °F 34.4 °F 34.0 °F 86% 29.96 in 10.0 mi SSE 4.6 mph - N/A   Clear
6:56 AM 39.0 °F - 36.0 °F 89% 29.97 in 10.0 mi Calm Calm - N/A   Clear
7:56 AM 41.0 °F - 39.0 °F 93% 29.97 in 10.0 mi Calm Calm - N/A   Clear
8:56 AM 48.9 °F - 43.0 °F 80% 29.96 in 10.0 mi Calm Calm - N/A   Clear
9:56 AM 57.0 °F - 37.0 °F 47% 29.96 in 10.0 mi Variable 3.5 mph - N/A   Clear
10:56 AM 60.1 °F - 32.0 °F 35% 29.94 in 10.0 mi WNW 8.1 mph - N/A   Clear
11:56 AM 64.9 °F - 30.9 °F 28% 29.91 in 10.0 mi NNW 9.2 mph - N/A   Clear
12:56 PM 66.9 °F - 26.1 °F 21% 29.88 in 10.0 mi WNW 13.8 mph 19.6 mph N/A   Clear
1:56 PM 66.9 °F - 23.0 °F 19% 29.84 in 10.0 mi NW 16.1 mph - N/A   Clear
2:56 PM 66.9 °F - 27.0 °F 22% 29.83 in 10.0 mi NW 16.1 mph 25.3 mph N/A   Clear
3:56 PM 64.9 °F - 28.9 °F 26% 29.83 in 10.0 mi NNW 16.1 mph - N/A   Clear
4:56 PM 59.0 °F - 32.0 °F 36% 29.84 in 10.0 mi NNW 13.8 mph 25.3 mph N/A   Clear
5:56 PM 55.9 °F - 33.1 °F 42% 29.85 in 10.0 mi NNW 15.0 mph - N/A   Clear
6:56 PM 54.0 °F - 28.9 °F 38% 29.83 in 10.0 mi WNW 12.7 mph - N/A   Clear
7:56 PM 51.1 °F - 30.9 °F 46% 29.82 in 10.0 mi WNW 11.5 mph 20.7 mph N/A   Clear
8:56 PM 50.0 °F - 32.0 °F 50% 29.79 in 10.0 mi NW 12.7 mph - N/A   Clear
9:56 PM 48.0 °F - 34.0 °F 58% 29.76 in 10.0 mi NNW 13.8 mph - N/A   Clear
10:56 PM 48.0 °F - 37.0 °F 66% 29.75 in 10.0 mi NW 12.7 mph - N/A   Partly Cloudy
11:56 PM 45.0 °F 40.1 °F 39.0 °F 80% 29.76 in 10.0 mi WNW 9.2 mph - 0.02 in Rain Light Rain